Дата Пункты Температура Давл., мм. Влажн., % Ветер Погодные явления
Воздуха Воды Направл. Скорость
19.12.14 07:00 Одесса 1.0 3.0 761 100 Пд-З 1 08 часов
19.12.14 04:00 Одесса 2.0 4.0 761 97 З 1 05 часов
19.12.14 01:00 Одесса 2.0 4.0 761 94 З 1 02 часа
18.12.14 10:00 Одесса 3.0 4.0 760 91 Пн-З 2 23 часа
18.12.14 07:00 Одесса 4.0 4.0 759 92 Пн 2 20 часов
18.12.14 04:00 Одесса 5.0 4.0 758 96 Пн-З 2 17 часов
18.12.14 01:00 Одесса 5.0 4.0 757 96 Пн 3 14 часов
18.12.14 10:00 Одесса 4.0 4.0 758 99 Пн 3 11 часов
18.12.14 07:00 Одесса 4.0 4.0 757 97 Пн 4 08 часов
18.12.14 04:00 Одесса 3.0 4.0 756 97 Пн 3 05 часов
18.12.14 01:00 Одесса 5.0 4.0 756 96 Пн-З 4 02 часа
17.12.14 10:00 Одесса 7.0 4.0 755 93 З 1 23 часа
17.12.14 07:00 Одесса 9.0 4.0 755 86 Пд-З 2 20 часов
17.12.14 04:00 Одесса 7.0 4.0 755 64 Пд 2 17 часов
17.12.14 01:00 Одесса 8.0 4.0 755 97 Пд 3 14 часов
17.12.14 10:00 Одесса 9.0 4.0 757 95 Пд 2 11 часов
17.12.14 07:00 Одесса 7.0 4.0 757 98 Пд 5 08 часов
17.12.14 04:00 Одесса 7.0 4.0 759 98 Пд 6 05 часов
17.12.14 01:00 Одесса 7.0 4.0 760 96 Пд-С 4 02 часа
16.12.14 10:00 Одесса 7.0 4.0 761 93 Пд 6 23 часа
Количество строк
431 432 433 434 435 436 437 438 439 440
Page 436 of 472